This is the latest recevied weather packets stored in our database for station/object KF0ZH. If no packets are shown the sender has not sent any weather packets the latest 10 day(s).
| Time | Temp. | Humidity | Pressure | Rain* | Wind** | Luminosity | Snow |
|---|---|---|---|---|---|---|---|
| 1777170603 | 9.44° C | 86% | 1015.4 hPa | 0 mm | 1.79 m/s, 40° | - | - |
| 1777170303 | 9.44° C | 86% | 1015.4 hPa | 0 mm | 2.24 m/s, 326° | - | - |
| 1777170003 | 9.44° C | 86% | 1015.6 hPa | 0 mm | 1.79 m/s, 316° | - | - |
| 1777169703 | 9.44° C | 86% | 1015.5 hPa | 0 mm | 2.68 m/s, 331° | - | - |
| 1777169403 | 9.44° C | 86% | 1015.4 hPa | 0 mm | 1.79 m/s, 337° | - | - |
| 1777169103 | 9.44° C | 86% | 1015.4 hPa | 0 mm | 1.34 m/s, 358° | - | - |
| 1777168804 | 9.44° C | 86% | 1015.3 hPa | 0 mm | 2.24 m/s, 316° | - | - |
| 1777168503 | 9.44° C | 86% | 1015.2 hPa | 0 mm | 1.79 m/s, 344° | - | - |
| 1777168203 | 9.44° C | 86% | 1015.2 hPa | 0 mm | 1.34 m/s, 344° | - | - |
| 1777167903 | 9.44° C | 86% | 1015 hPa | 0 mm | 2.68 m/s, 343° | - | - |
| 1777167603 | 9.44° C | 85% | 1014.8 hPa | 0 mm | 4.02 m/s, 336° | - | - |
| 1777167303 | 9.44° C | 86% | 1014.8 hPa | 0 mm | 2.68 m/s, 309° | - | - |
| 1777167003 | 10° C | 86% | 1014.7 hPa | 0 mm | 3.13 m/s, 0° | - | - |
| 1777166703 | 10° C | 86% | 1014.6 hPa | 0 mm | 2.68 m/s, 2° | - | - |
| 1777166403 | 10° C | 87% | 1014.4 hPa | 0 mm | 2.68 m/s, 340° | - | - |
| 1777166103 | 10° C | 86% | 1014.4 hPa | 0 mm | 2.24 m/s, 347° | - | - |
| 1777165804 | 10.56° C | 85% | 1014.4 hPa | 0 mm | 2.24 m/s, 11° | - | - |
| 1777165503 | 10.56° C | 84% | 1014.4 hPa | 0 mm | 0 m/s | - | - |
| 1777165205 | 10.56° C | 83% | 1014.5 hPa | 0 mm | 2.24 m/s, 338° | - | - |
| 1777164904 | 10.56° C | 83% | 1014.3 hPa | 0 mm | 3.13 m/s, 341° | - | - |
| 1777164603 | 10.56° C | 82% | 1014.3 hPa | 0 mm | 2.68 m/s, 333° | - | - |
| 1777164303 | 10.56° C | 82% | 1013.8 hPa | 0 mm | 2.24 m/s, 333° | - | - |
| 1777164004 | 10.56° C | 81% | 1013.5 hPa | 0 mm | 1.79 m/s, 326° | - | - |
* Rain latest hour (hover to see other rain measurements)
** Current wind speed in m/s (hover to see current wind gust speed)